OBJECT J, 44887

Orbit data source: Space-Track

You're viewing an Uncataloged Satellite

Recently launched and/or uncataloged satellites may have evolving metadata. Metadata may include but not limited to: Owner, Maufacturer, Bus, Motor, and Mission.

OBJECT J, 44887 is a satellite in SSO that was launched on Fri, 20 Dec 2019 UTC launched from the Taiyaun Space Center, China (TSC). Unknown objects in Earth's orbit typically refer to objects detected orbiting the Earth but have not yet been identified or cataloged. These objects could be anything from previously untracked satellites, spent rocket stages, debris from satellite collisions, or even natural meteoroids temporarily captured by Earth's gravity.

Loading next visibility...
Identifier
44887, 2019-093J
Orbit
SSO
Country
Flag of TBDTBD
Related business
Manufacturer
SAST
Mission
Non-operational Commercial Imaging
Bus & Motor
Unknown
Mass
~200 kg wet, ~200 kg dry
Launch date (UTC)
2019-12-20 (6 years ago)
Launch vehicle
Unknown
Launch site
Taiyaun Space Center, China (TSC)
Object type
Unknown
Shape & HBR
Cyl, Unknown HBR
Radar Cross Section
7.858 m², Medium (>0.1 m² and < 1m²)

Expand to show TLE details & history
Last TLE update: 14 hours ago

TLE from 14 hours ago
0 OBJECT J
1 44887U 19093J   25261.28497509  .00001732  00000-0  18168-3 0  9993
2 44887  97.8116 343.6366 0011463 253.7676 106.2281 14.90784366311459
Epoch: 2025-09-18T06:50Z
TLE epoch observation values (Epoch: 2025-09-18T06:50:21.847Z)
Latitude
-0.00005°
Longitude
-116.40319°
Altitude
600.77 km
Speed
7.558 km/s
True Right ascension
22h 54m 32s
True Declination
0° 00' 00"
Sunlit
Object was in full shadow at epoch
Visualization orbit readout
Latitude
Unknown
Longitude
Unknown
Altitude
Unknown
Speed
Unknown
Apparent Right ascension
Unknown
Apparent Declination
Unknown
Sunlit
N/A
Visualization observer readout
Local Sidereal Time
13:43:14
Azimuth
Unknown
Elevation
Unknown
Doppler factor
Unknown
Orbital elements
Apogee altitude
600.501 km
Perigee altitude
584.521 km
Semi-major axis
6,970.648 km
Eccentricity
0.00115
Inclination
97.8116°
RAAN
343.6366°
Arg. of periapsis
253.7676°
True anomaly
106.35417°
Mean anomaly
106.2281°
Eccentric anomaly
106.29114°
Mean motion
3.72935 °/min
Orbital period
96.53 mins
BSTAR
0.00018168
Loading maneuver chart data...
Computing Atmospheric mass density...
Loading historical data...
Loading historical data...
Loading historical data...
Loading historical data...
Loading historical data...
Loading historical data...
Loading historical data...

Documentation

Showing up to 5 results
|